When you browse on this site, cookies collect data to enhance your experience and personalize the content and advertising you see.
Visit our Privacy Policy to learn more. By continuing to use the site, you agree to this use of cookies and data.
  • In Hungary
  • List of Countries
  • For 7 days
  • Water Temperature
  • Weather Map
  • News
  • Weather Widgets
  • user-avatar
    Login

    Hourly Weather Nunspeet

    Today, 18 August, Sunday

    Time Temperature Precipitation Wind Pressure Humidity
    00:00 +15°C° 0 mm 2 mps 753 mmHg 91%
    01:00 +14°C° 0 mm 3 mps 753 mmHg 91%
    02:00 +14°C° 0 mm 3 mps 753 mmHg 92%
    03:00 +16°C° 0 mm 3 mps 753 mmHg 92%
    04:00 +16°C° 0.7 mm 3 mps 752 mmHg 93%
    05:00 +14°C° 0.7 mm 3 mps 752 mmHg 95%
    06:00 +14°C° 0 mm 4 mps 752 mmHg 94%
    07:00 +15°C° 0.2 mm 4 mps 752 mmHg 94%
    08:00 +15°C° 0.2 mm 4 mps 752 mmHg 93%
    09:00 +15°C° 0.2 mm 4 mps 752 mmHg 92%
    10:00 +15°C° 0.1 mm 4 mps 752 mmHg 91%
    11:00 +17°C° 0.1 mm 3 mps 752 mmHg 90%
    12:00 +17°C° 0.1 mm 3 mps 752 mmHg 89%
    13:00 +18°C° 0.1 mm 3 mps 752 mmHg 86%
    14:00 +19°C° 0.1 mm 4 mps 753 mmHg 83%
    15:00 +19°C° 0.1 mm 4 mps 753 mmHg 79%
    16:00 +19°C° 0.1 mm 4 mps 753 mmHg 80%
    17:00 +19°C° 0.1 mm 3 mps 754 mmHg 80%
    18:00 +19°C° 0.1 mm 3 mps 754 mmHg 81%
    19:00 +17°C° 0 mm 3 mps 754 mmHg 83%
    20:00 +15°C° 0 mm 4 mps 755 mmHg 86%
    21:00 +14°C° 0 mm 4 mps 755 mmHg 88%
    22:00 +14°C° 0 mm 4 mps 755 mmHg 87%
    23:00 +14°C° 0 mm 5 mps 756 mmHg 86%

    Tomorrow, 19 August, Monday

    Time Temperature Precipitation Wind Pressure Humidity
    00:00 +13°C° 0 mm 5 mps 756 mmHg 85%
    01:00 +13°C° 0 mm 5 mps 756 mmHg 86%
    02:00 +13°C° 0 mm 5 mps 756 mmHg 88%
    03:00 +13°C° 0 mm 5 mps 757 mmHg 89%
    04:00 +13°C° 0 mm 6 mps 757 mmHg 88%
    05:00 +14°C° 0 mm 6 mps 757 mmHg 87%
    06:00 +14°C° 0 mm 6 mps 758 mmHg 85%
    07:00 +15°C° 0.1 mm 6 mps 758 mmHg 78%
    08:00 +17°C° 0.1 mm 7 mps 758 mmHg 71%
    09:00 +18°C° 0.1 mm 7 mps 759 mmHg 64%
    10:00 +20°C° 0.1 mm 7 mps 759 mmHg 61%
    11:00 +21°C° 0.1 mm 8 mps 759 mmHg 58%
    12:00 +21°C° 0.1 mm 8 mps 760 mmHg 55%
    13:00 +21°C° 0.1 mm 7 mps 760 mmHg 55%
    14:00 +21°C° 0.1 mm 7 mps 760 mmHg 54%
    15:00 +21°C° 0.1 mm 6 mps 761 mmHg 53%
    16:00 +20°C° 0 mm 5 mps 761 mmHg 59%
    17:00 +19°C° 0 mm 4 mps 761 mmHg 64%
    18:00 +18°C° 0 mm 3 mps 761 mmHg 70%
    19:00 +17°C° 0 mm 3 mps 761 mmHg 74%
    20:00 +16°C° 0 mm 3 mps 761 mmHg 78%
    21:00 +14°C° 0 mm 3 mps 761 mmHg 82%
    22:00 +14°C° 0 mm 3 mps 762 mmHg 83%
    23:00 +13°C° 0 mm 4 mps 762 mmHg 85%

    Day after tomorrow, 20 August, Tuesday

    Time Temperature Precipitation Wind Pressure Humidity
    00:00 +13°C° 0 mm 4 mps 762 mmHg 86%
    01:00 +13°C° 0 mm 4 mps 762 mmHg 88%
    02:00 +13°C° 0 mm 4 mps 762 mmHg 90%
    03:00 +13°C° 0 mm 4 mps 762 mmHg 93%
    04:00 +13°C° 0 mm 4 mps 762 mmHg 90%
    05:00 +13°C° 0 mm 4 mps 763 mmHg 88%
    06:00 +14°C° 0 mm 4 mps 763 mmHg 85%
    07:00 +15°C° 0 mm 4 mps 763 mmHg 78%
    08:00 +18°C° 0 mm 4 mps 764 mmHg 70%
    09:00 +19°C° 0 mm 4 mps 764 mmHg 62%
    10:00 +20°C° 0.1 mm 4 mps 764 mmHg 59%
    11:00 +21°C° 0.1 mm 5 mps 765 mmHg 55%
    12:00 +21°C° 0.1 mm 5 mps 765 mmHg 52%
    13:00 +21°C° 0 mm 5 mps 765 mmHg 52%
    14:00 +21°C° 0 mm 5 mps 765 mmHg 53%
    15:00 +21°C° 0 mm 5 mps 765 mmHg 53%
    16:00 +19°C° 0 mm 4 mps 766 mmHg 59%
    17:00 +18°C° 0 mm 4 mps 766 mmHg 65%
    18:00 +17°C° 0 mm 3 mps 766 mmHg 70%
    19:00 +16°C° 0 mm 3 mps 767 mmHg 73%
    20:00 +15°C° 0 mm 2 mps 767 mmHg 76%
    21:00 +13°C° 0 mm 2 mps 768 mmHg 79%
    22:00 +13°C° 0 mm 2 mps 768 mmHg 80%
    23:00 +13°C° 0 mm 2 mps 768 mmHg 81%

    21 August, Wednesday

    Time Temperature Precipitation Wind Pressure Humidity
    00:00 +12°C° 0 mm 2 mps 768 mmHg 82%
    01:00 +12°C° 0 mm 2 mps 768 mmHg 82%
    02:00 +12°C° 0 mm 2 mps 768 mmHg 83%
    03:00 +12°C° 0 mm 2 mps 768 mmHg 84%
    04:00 +11°C° 0 mm 3 mps 769 mmHg 83%
    05:00 +12°C° 0 mm 3 mps 769 mmHg 82%
    06:00 +12°C° 0 mm 3 mps 769 mmHg 81%
    07:00 +14°C° 0 mm 3 mps 769 mmHg 76%
    08:00 +17°C° 0 mm 3 mps 769 mmHg 70%
    09:00 +19°C° 0 mm 3 mps 769 mmHg 65%
    10:00 +19°C° 0 mm 3 mps 769 mmHg 60%
    11:00 +20°C° 0 mm 2 mps 769 mmHg 56%
    12:00 +21°C° 0 mm 2 mps 769 mmHg 51%
    13:00 +21°C° 0 mm 2 mps 769 mmHg 50%
    14:00 +21°C° 0 mm 2 mps 769 mmHg 49%
    15:00 +23°C° 0 mm 1 mps 768 mmHg 48%
    16:00 +22°C° 0 mm 1 mps 768 mmHg 54%
    17:00 +21°C° 0 mm 1 mps 768 mmHg 59%
    18:00 +20°C° 0 mm 1 mps 768 mmHg 65%
    19:00 +18°C° 0 mm 1 mps 768 mmHg 67%
    20:00 +16°C° 0 mm 1 mps 768 mmHg 70%
    21:00 +15°C° 0 mm 1 mps 768 mmHg 72%
    22:00 +14°C° 0 mm 1 mps 768 mmHg 71%
    23:00 +14°C° 0 mm 2 mps 768 mmHg 71%

    22 August, Thursday

    Time Temperature Precipitation Wind Pressure Humidity
    00:00 +14°C° 0 mm 2 mps 768 mmHg 70%
    01:00 +14°C° 0 mm 2 mps 768 mmHg 71%
    02:00 +13°C° 0 mm 2 mps 767 mmHg 71%
    03:00 +13°C° 0 mm 2 mps 767 mmHg 72%
    04:00 +14°C° 0 mm 2 mps 767 mmHg 72%
    05:00 +14°C° 0 mm 2 mps 767 mmHg 71%
    06:00 +14°C° 0 mm 2 mps 767 mmHg 71%
    07:00 +16°C° 0 mm 2 mps 768 mmHg 66%
    08:00 +18°C° 0 mm 2 mps 768 mmHg 62%
    09:00 +20°C° 0 mm 2 mps 768 mmHg 57%
    10:00 +21°C° 0 mm 2 mps 768 mmHg 54%
    11:00 +22°C° 0 mm 3 mps 768 mmHg 50%
    12:00 +24°C° 0 mm 3 mps 768 mmHg 47%
    13:00 +24°C° 0 mm 3 mps 768 mmHg 47%
    14:00 +24°C° 0 mm 3 mps 768 mmHg 48%
    15:00 +24°C° 0 mm 3 mps 768 mmHg 48%
    16:00 +21°C° 0 mm 2 mps 768 mmHg 55%
    17:00 +20°C° 0 mm 2 mps 768 mmHg 63%
    18:00 +18°C° 0 mm 2 mps 768 mmHg 70%
    19:00 +17°C° 0 mm 2 mps 768 mmHg 75%
    20:00 +16°C° 0 mm 2 mps 768 mmHg 79%
    21:00 +14°C° 0 mm 1 mps 768 mmHg 83%
    22:00 +14°C° 0 mm 2 mps 768 mmHg 84%
    23:00 +14°C° 0 mm 2 mps 768 mmHg 85%

    23 August, Friday

    Time Temperature Precipitation Wind Pressure Humidity
    00:00 +13°C° 0 mm 2 mps 768 mmHg 86%
    01:00 +13°C° 0 mm 2 mps 768 mmHg 87%
    02:00 +13°C° 0 mm 2 mps 768 mmHg 87%
    03:00 +13°C° 0 mm 2 mps 767 mmHg 88%
    04:00 +14°C° 0 mm 2 mps 767 mmHg 86%
    05:00 +15°C° 0 mm 1 mps 767 mmHg 84%
    06:00 +15°C° 0 mm 1 mps 767 mmHg 82%
    07:00 +18°C° 0 mm 1 mps 767 mmHg 73%
    08:00 +21°C° 0 mm 1 mps 768 mmHg 65%
    09:00 +23°C° 0 mm 1 mps 768 mmHg 56%
    10:00 +24°C° 0 mm 1 mps 767 mmHg 53%
    11:00 +25°C° 0 mm 2 mps 767 mmHg 49%
    12:00 +27°C° 0 mm 2 mps 767 mmHg 45%
    13:00 +27°C° 0 mm 2 mps 767 mmHg 45%
    14:00 +27°C° 0 mm 2 mps 766 mmHg 45%
    15:00 +27°C° 0 mm 2 mps 766 mmHg 45%
    16:00 +26°C° 0 mm 2 mps 766 mmHg 51%
    17:00 +24°C° 0 mm 2 mps 765 mmHg 57%
    18:00 +23°C° 0 mm 2 mps 765 mmHg 63%
    19:00 +21°C° 0 mm 3 mps 765 mmHg 65%
    20:00 +20°C° 0 mm 3 mps 765 mmHg 68%
    21:00 +19°C° 0 mm 3 mps 765 mmHg 70%
    22:00 +18°C° 0 mm 3 mps 765 mmHg 69%
    23:00 +18°C° 0 mm 3 mps 765 mmHg 68%
    Show more